Weather observations for the past three days for
Steamboat Springs
Imperial (Metric)
Date Time (mdt) Wind (mph) Vis. (mi.) Weather Sky Cond. Temperature (ºF) Relative Humidity Wind Chill (°F) Heat Index (°F) Pressure Precipitation (in)
Air Dwpt 6 hour altimeter (in) sea level (mb) 1 hr 3 hr 6 hr
Max. Min.
13 23:15 Calm 10.00 Partly Cloudy SCT120 65.8 39.6 38% 30.2 0.0
13 22:55 NW 6 10.00 Partly Cloudy SCT120 63.9 41.2 44% 30.2 0.0
13 22:35 Calm 10.00 Fair CLR 69.4 38.5 32% 30.19 0.0
13 22:15 SE 5 10.00 Fair CLR 68.5 37.4 32% 30.19 0.0
13 21:55 E 6 10.00 Fair CLR 71.2 36.7 28% 30.18 0.0
13 21:35 E 6 10.00 Fair CLR 70.7 38.1 31% 30.18 0.0
13 21:15 E 7 10.00 Fair CLR 70.9 37.9 30% 30.18 0.0
13 20:55 E 8 10.00 Fair CLR 71.8 39.9 32% 30.18 0.0
13 20:35 E 3 10.00 Fair CLR 73.4 41 31% 30.17 0.0
13 20:15 Calm 10.00 Fair CLR 77.9 37.4 23% 78 30.17 0.0
13 19:55 Calm 10.00 Fair CLR 77.7 39.7 26% 78 30.17 0.0
13 19:35 W 7 10.00 Partly Cloudy SCT080 81 35.6 20% 79 30.17 0.0
13 19:15 S 7 G 26 10.00 Partly Cloudy SCT080 SCT100 SCT120 80.6 32 17% 79 30.17 0.0
13 18:55 SW 6 10.00 Partly Cloudy SCT120 82 31.6 16% 80 30.16 0.0
13 18:35 Calm 10.00 Fair CLR 84.6 30 14% 82 30.15 0.0
13 18:15 SW 6 10.00 Fair CLR 85.6 33.6 15% 82 30.16 0.0
13 17:55 Calm 10.00 Fair CLR 86 32.4 86.4 78.8 15% 83 30.16 0.0
13 17:35 E 3 10.00 Fair CLR 85.6 31.8 14% 82 30.17 0.0
13 17:15 SE 3 10.00 Fair CLR 85.5 32 15% 82 30.17 0.0
13 16:55 S 6 10.00 Fair CLR 86.4 37 17% 83 30.18 0.0
13 16:35 S 6 10.00 Fair CLR 84.9 35.6 17% 82 30.18 0.0
13 16:15 S 5 10.00 Fair CLR 85.6 36 17% 82 30.2 0.0
13 15:55 S 3 10.00 Fair CLR 85.3 37.4 18% 82 30.2 0.0
13 15:35 S 7 10.00 Fair CLR 85.3 36.1 17% 82 30.2 0.0
13 15:15 Calm 10.00 Fair CLR 85.1 34.2 16% 82 30.21 0.0
13 14:55 Calm 10.00 Fair CLR 84.4 32.7 16% 81 30.21 0.0
13 14:35 SW 7 10.00 Fair CLR 84.6 34.9 17% 82 30.22 0.0
13 14:15 NW 5 10.00 Fair CLR 83.7 33.8 17% 81 30.23 0.0
13 13:55 W 8 10.00 Fair CLR 83.5 35.1 18% 81 30.23 0.0
13 13:36 SW 5 10.00 Fair CLR 82.8 34.3 17% 80 30.24 0.0
13 13:15 W 6 10.00 Fair CLR 81.9 31.8 16% 80 30.24 0.0
13 12:55 W 9 10.00 Fair CLR 81.3 32.4 17% 79 30.26 0.0
13 12:35 SW 7 10.00 Fair CLR 81.5 35.1 19% 79 30.26 0.0
13 12:15 W 7 10.00 Fair CLR 79.5 37.2 22% 78 30.26 0.0
13 11:55 SW 6 10.00 Fair CLR 78.1 39.2 78.3 45.5 25% 78 30.26 0.0
13 11:35 Calm 10.00 Fair CLR 77.9 41.9 28% 78 30.26 0.0
13 11:15 Calm 10.00 Fair CLR 76.5 39.4 26% 77 30.26 0.0
13 10:55 SW 3 10.00 Fair CLR 75.4 49.5 40% 78 30.26 0.0
13 10:35 Calm 10.00 Fair CLR 71.6 49.8 46% 30.26 0.0
13 10:15 Calm 10.00 Fair CLR 68.7 49.8 51% 30.26 0.0
13 09:55 N 5 10.00 Fair CLR 66 48.7 54% 30.26 0.0
13 09:35 Calm 10.00 Fair CLR 63.5 47.8 57% 30.26 0.0
13 09:15 SW 3 10.00 Fair CLR 61.9 48.6 62% 30.25 0.0
13 08:55 Calm 10.00 Fair CLR 61.3 47.3 60% 30.24 0.0
13 08:35 Calm 10.00 Fair CLR 58.6 46.9 65% 30.24 0.0
13 08:15 Calm 10.00 Fair CLR 56.8 43.2 60% 30.24 0.0
13 07:55 SE 3 10.00 Fair CLR 54.7 43.7 67% 30.24 0.0
13 07:15 Calm 10.00 Fair CLR 51.6 43.5 74% 30.24 0.0
13 06:55 Calm 10.00 Fair CLR 49.1 42.8 79% 30.23 0.0
13 06:35 Calm 10.00 Fair CLR 46.9 43.7 89% 30.23 0.0
13 06:15 Calm 10.00 Fair CLR 48 41.2 77% 30.22 0.0
13 05:55 Calm 10.00 Fair CLR 45.5 43 55.9 45.5 91% 30.21 0.0
13 05:35 Calm 10.00 Fair CLR 47.3 41.9 82% 30.2 0.0
13 05:15 Calm 10.00 Fair CLR 46.8 43.2 87% 30.2 0.0
13 04:55 Calm 10.00 Fair CLR 46.4 43.2 89% 30.19 0.0
13 04:35 Calm 10.00 Fair CLR 46.8 43 87% 30.18 0.0
13 04:15 Calm 10.00 Fair CLR 47.5 43.7 87% 30.18 0.0
13 03:55 Calm 10.00 Fair CLR 48.7 42.8 80% 30.19 0.0
13 03:35 Calm 10.00 Fair CLR 48 42.8 82% 30.19 0.0
13 03:15 Calm 10.00 Fair CLR 51.1 41.9 71% 30.19 0.0
13 02:55 NE 3 10.00 Fair CLR 49.3 43.5 81% 30.19 0.0
13 02:35 Calm 10.00 Fair CLR 49.6 44.1 81% 30.19 0.0
13 02:15 Calm 10.00 Fair CLR 48.9 44.4 85% 30.19 0.0
13 01:55 Calm 10.00 Fair CLR 51.4 42.8 72% 30.19 0.0
13 01:35 NW 3 10.00 Fair CLR 51.4 44.4 77% 30.19 0.0
13 01:15 Calm 10.00 Fair CLR 52.7 44.1 73% 30.19 0.0
13 00:55 Calm 10.00 Fair CLR 53.6 43.7 69% 30.2 0.0
13 00:35 N 3 10.00 Fair CLR 54 44.4 70% 30.21 0.0
13 00:15 Calm 10.00 Fair CLR 53.2 44.6 73% 30.21 0.0
12 23:55 NW 5 10.00 Fair CLR 56.1 43.3 71.6 55.2 62% 30.2 0.0
12 23:35 W 3 10.00 Fair CLR 56.3 44.4 65% 30.2 0.0
12 23:15 Calm 10.00 Fair CLR 56.7 45.3 66% 30.21 0.0
12 22:55 SE 7 10.00 Fair CLR 58.3 46.4 65% 30.21 0.0
12 22:35 Calm 10.00 Fair CLR 59 45.9 62% 30.22 0.0
12 22:15 Calm 10.00 Fair CLR 59.9 45.7 60% 30.21 0.0
12 21:55 Calm 10.00 Fair CLR 60.6 47.1 61% 30.2 0.0
12 21:35 Calm 10.00 Fair CLR 62.2 44.8 53% 30.2 0.0
12 21:15 Calm 10.00 Fair CLR 63.5 45.7 52% 30.2 0.0
12 20:55 E 6 10.00 Fair CLR 65.1 46.2 51% 30.18 0.0
12 20:35 Calm 10.00 Fair CLR 67.8 43.9 42% 30.18 0.0
12 20:15 NE 6 10.00 Fair CLR 68.7 45 43% 30.18 0.0
12 19:55 E 3 10.00 Fair CLR 69.3 46.8 45% 30.18 0.0
12 19:35 E 14 10.00 Partly Cloudy SCT100 SCT120 70.3 48.7 46% 30.19 0.0
12 19:15 NE 6 10.00 Overcast OVC100 68.9 48.4 48% 30.22 0.0
12 18:55 S 10 10.00 Overcast OVC110 68.7 49.8 51% 30.22 0.0
12 18:35 SE 7 10.00 Mostly Cloudy BKN120 70.7 51.1 50% 30.2 0.0
12 18:15 SE 7 10.00 Mostly Cloudy SCT095 BKN120 70.2 48 45% 30.18 0.0
12 17:55 NE 3 10.00 Mostly Cloudy BKN110 68.4 49.6 84.7 61.7 51% 30.19 0.0
12 17:35 Calm 10.00 Mostly Cloudy SCT090 BKN110 69.4 48.4 47% 30.2 0.0
12 17:15 W 20 10.00 Mostly Cloudy BKN100 BKN110 65.7 46.8 51% 30.21 0.0
12 16:55 S 12 G 32 10.00 Mostly Cloudy SCT017 SCT050 BKN100 63.7 43 47% 30.19 0.0
12 16:35 S 9 G 32 5.00 Overcast SCT019 SCT050 OVC100 67.6 45 44% 30.18 0.0
12 16:15 SW 6 10.00 Mostly Cloudy BKN100 78.4 44.2 30% 78 30.16 0.0
12 15:55 S 10 G 16 10.00 Partly Cloudy SCT110 82.9 42.4 24% 81 30.16 0.0
12 15:35 S 10 G 22 10.00 Partly Cloudy SCT110 83.5 43 24% 81 30.17 0.0
12 15:15 W 9 G 17 10.00 Fair CLR 84.2 40.1 21% 81 30.17 0.0
12 14:55 SW 9 G 22 10.00 Partly Cloudy SCT100 81.3 40.3 23% 80 30.17 0.0
12 14:35 SW 10 G 17 10.00 Partly Cloudy SCT100 SCT120 82.9 41.5 23% 81 30.17 0.0
12 14:15 SW 13 G 23 10.00 Fair CLR 82.8 41.7 23% 81 30.18 0.0
12 13:55 W 13 G 20 10.00 Fair CLR 82.4 41.4 23% 80 30.19 0.0
12 13:35 W 12 G 18 10.00 Fair CLR 80.8 40.3 24% 79 30.2 0.0
12 13:15 W 8 10.00 Fair CLR 81.5 41.4 24% 80 30.2 0.0
12 12:55 Calm 10.00 Fair CLR 79.5 41.5 26% 79 30.21 0.0
12 12:35 Calm 10.00 Fair CLR 78.6 40.1 25% 78 30.22 0.0
12 12:15 SW 3 10.00 Fair CLR 77.7 39.7 26% 78 30.23 0.0
12 11:55 SW 5 10.00 Fair CLR 77.7 40.5 77.7 42.8 26% 78 30.23 0.0
12 11:35 W 5 10.00 Fair CLR 75.2 40.1 28% 77 30.23 0.0
12 11:15 S 5 10.00 Fair CLR 75 41.2 30% 77 30.23 0.0
12 10:55 Calm 10.00 Fair CLR 73.2 46.6 39% 30.24 0.0
12 10:35 Calm 10.00 Fair CLR 71.1 44.1 38% 30.24 0.0
12 10:15 Calm 10.00 Fair CLR 67.5 41.7 39% 30.24 0.0
12 09:55 Calm 10.00 Fair CLR 65.7 42.1 42% 30.24 0.0
12 09:35 Calm 10.00 Fair CLR 63.7 41.2 44% 30.24 0.0
12 09:15 Calm 10.00 Fair CLR 61.5 42.8 50% 30.24 0.0
12 08:55 Calm 10.00 Fair CLR 59.4 40.5 50% 30.25 0.0
12 08:35 Calm 10.00 Fair CLR 56.7 41 56% 30.25 0.0
12 08:15 Calm 10.00 Fair CLR 54.9 40.6 59% 30.25 0.0
12 07:55 Calm 10.00 Fair CLR 52.3 39.2 61% 30.25 0.0
12 07:35 Calm 10.00 Fair CLR 50.2 38.7 65% 30.24 0.0
12 07:15 Calm 10.00 Fair CLR 48.4 38.7 69% 30.24 0.0
12 06:55 Calm 10.00 Fair CLR 47.3 37.2 68% 30.24 0.0
12 06:35 Calm 10.00 Fair CLR 45.5 36.5 71% 30.24 0.0
12 06:15 Calm 10.00 Fair CLR 43 36.7 79% 30.24 0.0
12 05:55 Calm 10.00 Fair CLR 43.3 36.5 56.5 43.3 77% 30.23 0.0
12 05:35 Calm 10.00 Fair CLR 45 36.3 72% 30.23 0.0
12 05:15 Calm 10.00 Fair CLR 45 36.3 72% 30.22 0.0
12 04:55 Calm 10.00 Fair CLR 45.7 36.7 71% 30.22 0.0
12 04:35 Calm 10.00 Fair CLR 45.5 36.5 71% 30.22 0.0
12 04:15 SW 3 10.00 Fair CLR 46.4 36 67% 30.22 0.0
12 03:55 Calm 10.00 Fair CLR 46.2 36.5 69% 30.21 0.0
12 03:35 Calm 10.00 Fair CLR 47.7 35.8 64% 30.21 0.0
12 03:15 Calm 10.00 Fair CLR 48.2 35.8 62% 30.21 0.0
12 02:55 Calm 10.00 Fair CLR 48.2 36.5 64% 30.2 0.0
12 02:35 Calm 10.00 Fair CLR 47.5 36.5 66% 30.2 0.0
12 02:15 Calm 10.00 Fair CLR 49.1 36.5 62% 30.2 0.0
12 01:55 Calm 10.00 Fair CLR 50 36 59% 30.19 0.0
12 01:35 Calm 10.00 Fair CLR 51.8 36.1 55% 30.19 0.0
12 01:15 Calm 10.00 Fair CLR 51.1 36.7 58% 30.19 0.0
12 00:55 E 7 10.00 Fair CLR 55.2 35.6 48% 30.19 0.0
12 00:35 Calm 10.00 Fair CLR 54.5 37 52% 30.18 0.0
12 00:15 Calm 10.00 Fair CLR 54.3 36.7 52% 30.18 0.0
11 23:55 Calm 10.00 Fair CLR 55.9 36.5 79.2 54.7 48% 30.17 0.0
11 23:35 Calm 10.00 Fair CLR 55.9 37 49% 30.17 0.0
11 23:15 S 5 10.00 Fair CLR 57.2 36.7 46% 30.16 0.0
11 22:55 Calm 10.00 Fair CLR 58.1 36.7 45% 30.15 0.0
11 22:35 Calm 10.00 Fair CLR 59 36.1 43% 30.15 0.0
11 22:15 Calm 10.00 Fair CLR 60.4 36.9 42% 30.15 0.0
11 21:55 E 7 10.00 Fair CLR 64 34.7 34% 30.15 0.0
11 21:35 SE 7 10.00 Fair CLR 63.7 37.6 38% 30.14 0.0
11 21:15 E 5 10.00 Fair CLR 64 36.5 36% 30.13 0.0
11 20:55 Calm 10.00 Fair CLR 67.5 37.9 34% 30.13 0.0
11 20:35 SE 3 10.00 Fair CLR 70.5 35.2 27% 30.13 0.0
11 20:15 Calm 10.00 Fair CLR 73.2 36 26% 30.12 0.0
11 19:35 W 5 10.00 Fair CLR 76.5 36 23% 77 30.12 0.0
11 19:15 W 5 10.00 Fair CLR 77.4 32.5 19% 77 30.13 0.0
11 18:55 W 8 10.00 Fair CLR 78.1 32.9 19% 77 30.12 0.0
11 18:35 W 10 10.00 Fair CLR 78.8 32 18% 78 30.12 0.0
11 18:15 W 8 10.00 Fair CLR 79.2 36.7 22% 78 30.13 0.0
11 17:55 W 10 G 17 10.00 Fair CLR 79 37.6 79.7 70.9 23% 78 30.13 0.0
11 17:35 W 10 G 18 10.00 Fair CLR 79.2 38.7 23% 78 30.13 0.0
11 16:55 W 12 G 20 10.00 Fair CLR 79.2 36 21% 78 30.14 0.0
11 16:35 W 8 G 16 10.00 Fair CLR 79.3 34.5 20% 78 30.15 0.0
11 16:15 NW 10 G 17 10.00 Fair CLR 78.4 33.3 19% 78 30.16 0.0
11 15:55 W 14 10.00 Fair CLR 79 34.3 20% 78 30.16 0.0
11 15:35 W 12 G 17 10.00 Fair CLR 77.9 33.1 20% 77 30.17 0.0
11 15:15 SW 10 G 18 10.00 Fair CLR 77.5 35.8 22% 77 30.18 0.0
11 14:55 W 10 10.00 Fair CLR 77.7 37 23% 78 30.18 0.0
11 14:35 W 7 10.00 Fair CLR 77.5 36.5 23% 77 30.18 0.0
11 14:15 W 13 G 17 10.00 Fair CLR 77.2 37.6 24% 77 30.19 0.0
11 13:55 W 8 G 17 10.00 Fair CLR 76.3 39 26% 77 30.2 0.0
11 13:35 W 15 G 18 10.00 Fair CLR 75.6 39.9 28% 77 30.2 0.0
11 13:15 W 16 G 22 10.00 Fair CLR 75.4 40.5 29% 77 30.2 0.0
11 12:55 Calm 10.00 Fair CLR 75 39.4 28% 77 30.21 0.0
11 12:35 SW 5 10.00 Fair CLR 72.5 37.6 28% 30.22 0.0
11 12:15 Calm 10.00 Fair CLR 71.6 36.9 28% 30.23 0.0
11 11:55 SW 6 10.00 Fair CLR 71.4 33.3 71.4 43.7 25% 30.23 0.0
11 11:35 S 5 10.00 Fair CLR 70.9 33.4 25% 30.23 0.0
11 11:20 SW 5 10.00 Fair CLR 70 33.3 26% 30.23 0.0
11 11:15 Calm 10.00 Fair CLR 69.1 33.6 27% 30.23 0.0
11 10:35 NW 5 10.00 Fair CLR 66.7 37.9 35% 30.24 0.0
11 10:15 S 3 10.00 Fair CLR 65.1 39.9 40% 30.24 0.0
11 09:55 Calm 10.00 Fair CLR 63.5 44.1 49% 30.25 0.0
11 09:35 Calm 10.00 Fair CLR 61 44.4 55% 30.26 0.0
11 09:15 Calm 10.00 Fair CLR 59.2 44.4 58% 30.26 0.0
11 08:55 Calm 10.00 Fair CLR 56.8 43.5 61% 30.26 0.0
11 08:37 Calm 10.00 Fair CLR 55.6 42.8 62% 30.26 0.0
11 08:15 Calm 10.00 Fair CLR 53.8 41.7 64% 30.26 0.0
11 07:55 Calm 10.00 Fair CLR 51.1 43 74% 30.26 0.0
11 07:35 Calm 10.00 Fair CLR 49.3 43.9 82% 30.26 0.0
11 07:15 Calm 10.00 Fair CLR 47.1 43 86% 30.25 0.0
11 06:55 Calm 10.00 Fair CLR 45 43.5 95% 30.24 0.0
11 06:35 Calm 10.00 Fair CLR 45.5 43.7 93% 30.24 0.0
11 06:15 Calm 10.00 Fair CLR 44.8 44.4 99% 30.24 0.0
11 05:55 N 3 10.00 Fair CLR 44.6 44.6 56.3 43.7 100% 30.23 0.0
11 05:35 Calm 10.00 Fair CLR 44.8 44.8 100% 30.23 0.0
11 05:15 Calm 10.00 Fair CLR 44.8 44.8 100% 30.23 0.0
11 04:55 Calm 10.00 Fair CLR 44.2 44.1 99% 30.22 0.0
11 04:35 Calm 10.00 Fair CLR 46.4 42.3 86% 30.21 0.0
11 04:15 Calm 10.00 Fair CLR 44.6 44.6 100% 30.21 0.0
11 03:55 Calm 10.00 Fair CLR 49.5 41 73% 30.2 0.0
11 03:35 NE 3 10.00 Fair CLR 48.4 41.9 78% 30.2 0.0
11 03:15 Calm 10.00 Fair CLR 49.1 42.1 77% 30.2 0.0
11 02:55 Calm 10.00 Fair CLR 50 42.1 74% 30.2 0.0
11 02:35 Calm 10.00 Fair CLR 51.6 42.3 71% 30.2 0.0
11 02:15 Calm 10.00 Fair CLR 50.4 42.4 74% 30.19 0.0
11 01:55 Calm 10.00 Fair CLR 50.9 42.1 72% 30.19 0.0
11 01:35 Calm 10.00 Fair CLR 52.7 41.7 66% 30.18 0.0
11 01:15 Calm 10.00 Partly Cloudy SCT110 54.7 41.2 61% 30.19 0.0
11 00:55 Calm 10.00 Mostly Cloudy BKN110 54.9 41.5 61% 30.19 0.0
11 00:35 Calm 10.00 Mostly Cloudy BKN110 55 42.3 62% 30.19 0.0
11 00:15 Calm 10.00 Fair CLR 55.8 42.3 61% 30.18 0.0
10 23:55 Calm 10.00 Fair CLR 56.3 42.3 71.8 55.4 60% 30.18 0.0
Date Time (mdt) Wind (mph) Vis. (mi.) Weather Sky Cond. Air Dwpt Max. Min. Relative Humidity Wind Chill (°F) Heat Index (°F) altimeter (in) sea level (mb) 1 hr 3 hr 6 hr
6 hour
Temperature (ºF) Pressure Precipitation (in)